This is the latest recevied weather packets stored in our database for station/object JI6FPP-13. If no packets are shown the sender has not sent any weather packets the latest 10 day(s).
| Time | Temp. | Humidity | Pressure | Rain* | Wind** | Luminosity | Snow |
|---|---|---|---|---|---|---|---|
| 1777868779 | 23.33° C | 2% | 1010 hPa | 0 mm | - | - | - |
| 1777868180 | 23.33° C | 2% | 1010 hPa | 0 mm | - | - | - |
| 1777867580 | 23.89° C | 2% | 1009 hPa | 0 mm | - | - | - |
| 1777866980 | 23.89° C | 2% | 1009 hPa | 0 mm | - | - | - |
| 1777866380 | 23.89° C | 2% | 1009 hPa | 0 mm | - | - | - |
| 1777865780 | 23.89° C | 2% | 1009 hPa | 0 mm | - | - | - |
| 1777865181 | 24.44° C | 2% | 1009 hPa | 0 mm | - | - | - |
| 1777864579 | 23.89° C | 2% | 1009 hPa | 0 mm | - | - | - |
| 1777863980 | 23.33° C | 2% | 1009 hPa | 0 mm | - | - | - |
| 1777863380 | 24.44° C | 2% | 1009 hPa | 0 mm | - | - | - |
| 1777862780 | 24.44° C | 2% | 1009 hPa | 0 mm | - | - | - |
| 1777862180 | 23.89° C | 2% | 1009 hPa | 0 mm | - | - | - |
| 1777861581 | 23.89° C | 2% | 1009 hPa | 0 mm | - | - | - |
| 1777860979 | 23.89° C | 2% | 1009 hPa | 0 mm | - | - | - |
| 1777860379 | 23.33° C | 2% | 1010 hPa | 0 mm | - | - | - |
| 1777859779 | 23.33° C | 2% | 1010 hPa | 0 mm | - | - | - |
| 1777859179 | 23.89° C | 12% | 1009 hPa | 0 mm | - | - | - |
| 1777858580 | 23.33° C | 18% | 1009 hPa | 0 mm | - | - | - |
| 1777857981 | 22.22° C | 14% | 1009 hPa | 0 mm | - | - | - |
| 1777857379 | 21.67° C | 23% | 1009 hPa | 0 mm | - | - | - |
| 1777856779 | 21.11° C | 24% | 1009 hPa | 0 mm | - | - | - |
| 1777856179 | 20.56° C | 23% | 1009 hPa | 0 mm | - | - | - |
| 1777855579 | 20° C | 26% | 1009 hPa | 0 mm | - | - | - |
| 1777854979 | 19.44° C | 29% | 1008 hPa | 0 mm | - | - | - |
| 1777854380 | 19.44° C | 29% | 1008 hPa | 0 mm | - | - | - |
* Rain latest hour (hover to see other rain measurements)
** Current wind speed in m/s (hover to see current wind gust speed)